Flag for U.S.A. Weather past 2 weeks in Houston, Texas, U.S.A.

Now
81 °F

Passing clouds.


Feels Like: 89 °F
Forecast: 81 / 90 °F
Wind: 7 mph from Southeast

Location: Houston Hobby Airport

Current Time: Jul 7, 2015 at 3:59:44 AM

Latest Report: Jul 7, 2015 at 2:53 AM


Visibility: 10 mi

Pressure: 30.02 "Hg

Humidity: 91%

Dew point: 78 °F

Location of HoustonLocation

Historic Weather in Houston — Graph

°F

Houston temperature yesterday

Maximum temperature yesterday: 90 °F (at 12:53 PM)
Minimum temperature yesterday: 79 °F (at 3:53 AM)
Average temperature yesterday: 84 °F

Past Weeks' High & Low Weather Summary

 TemperatureHumidityPressure
High93 °F (Jun 27, 3:53 PM)97% (Jul 1, 9:53 PM)30.17 "Hg (Jul 1, 9:53 PM)
Low72 °F (Jul 2, 12:53 AM)47% (Jun 27, 3:53 PM)29.93 "Hg (Jun 26, 6:53 PM)
Average82 °F78%30.04 "Hg
* Reported Jun 22 2:53 AM — Jul 7 2:53 AM, Houston, Weather by CustomWeather, © 2015

Note: Actual official high and low records may vary slightly from our data, if they occured in-between our weather recording intervals... More about our weather records

Advertising

Houston weather history for previous 24 hours

 ConditionsComfort  
Time TempWeatherWind HumidityBarometerVisibility
2:53 AM
Tue, Jul 7
81 °FPassing clouds.7 mph91%30.02 "Hg10 mi
1:53 AM80 °FClear.3 mph90%30.04 "Hg10 mi
12:53 AM80 °FPassing clouds.3 mph87%30.06 "Hg10 mi
11:53 PM
Mon, Jul 6
81 °FPassing clouds.No wind85%30.06 "Hg10 mi
10:53 PM81 °FPassing clouds.8 mph85%30.02 "Hg10 mi
9:53 PM82 °FPassing clouds.7 mph79%29.99 "Hg10 mi
8:53 PM83 °FScattered clouds.9 mph77%29.97 "Hg10 mi
7:53 PM84 °FPartly sunny.12 mph74%29.98 "Hg10 mi
6:53 PM86 °FBroken clouds.14 mph67%29.99 "Hg10 mi
5:53 PM88 °FPartly sunny.13 mph65%30.01 "Hg10 mi
4:53 PM89 °FBroken clouds.12 mph57%30.03 "Hg10 mi
3:53 PM89 °FBroken clouds.15 mph61%30.05 "Hg10 mi
2:53 PM89 °FMore clouds than sun.14 mph57%30.06 "Hg10 mi
1:53 PM90 °FMore clouds than sun.12 mph59%30.07 "Hg10 mi
12:53 PM90 °FBroken clouds.14 mph57%30.09 "Hg10 mi
11:53 AM89 °FScattered clouds.13 mph59%30.10 "Hg10 mi
10:53 AM89 °FScattered clouds.16 mph63%30.10 "Hg10 mi
9:53 AM87 °FBroken clouds.15 mph67%30.10 "Hg10 mi
8:53 AM85 °FScattered clouds.9 mph80%30.09 "Hg10 mi
7:53 AM82 °FPassing clouds.7 mph88%30.07 "Hg10 mi
6:53 AM79 °FPassing clouds.5 mph94%30.06 "Hg9 mi
5:53 AM79 °FPassing clouds.5 mph94%30.05 "Hg10 mi
4:53 AM79 °FPassing clouds.5 mph94%30.04 "Hg10 mi
3:53 AM79 °FPassing clouds.5 mph90%30.04 "Hg10 mi
Weather by CustomWeather, © 2015

See weather overviewHow to use our weather pages